Date String (YYYY-MM-DD hh:mm:ss) UTC,Instrument flags,Ambient pressure (hPa),Sample flow (lpm),Bypass flow (lpm),Sample temperature (°C),Ambient temperature (°C),ASC tube jacket temperature (°C),LED temperature (°C),Box temperature (°C),Sample RH (%),Span deviation,Mass concentration (μg/m³),Mass concentration (μg/m³),Mass concentration (μg/m³)
DateTimeUTC,F1_M11,P_M11,Q1_M11,Q2_M11,T1_M11,T2_M11,T3_M11,T4_M11,T5_M11,U1_M11,ZSPAN_M11,X2_M11,X0_M11,X1_M11
2021-12-27 10:00:00,,0817.5,4.99,0.00,21.3,20.7,00.0,30.6,22.7,10.4,0000.0,0001.46,0006.37,0000.65
2021-12-27 10:01:00,,0817.5,4.99,0.00,21.4,21.5,00.0,30.6,23.1,10.3,0000.0,0001.41,0006.65,0000.65
2021-12-27 10:02:00,,0817.5,5.01,0.00,21.6,22.4,00.0,30.7,23.4,10.2,0000.0,0001.44,0007.67,0000.65
2021-12-27 10:03:00,,0817.5,5.00,0.00,21.7,22.3,00.0,30.7,23.5,10.1,0000.0,0001.45,0007.67,0000.66
2021-12-27 10:04:00,,0817.5,5.00,0.00,21.7,22.0,00.0,30.7,23.4,10.0,0000.0,0001.42,0007.20,0000.66
2021-12-27 10:05:00,,0817.4,4.99,0.00,21.6,21.6,00.0,30.7,23.2,10.0,0000.0,0001.40,0007.08,0000.66
2021-12-27 10:06:00,,0817.5,5.01,0.00,21.5,21.3,00.0,30.7,23.0,10.1,0000.0,0001.37,0007.28,0000.66
2021-12-27 10:07:00,,0817.5,4.99,0.00,21.4,21.1,00.0,30.6,22.9,10.1,0000.0,0001.40,0007.34,0000.66
2021-12-27 10:08:00,,0817.5,5.01,0.00,21.4,20.9,00.0,30.6,22.8,10.2,0000.0,0001.40,0007.31,0000.66
2021-12-27 10:09:00,,0817.5,4.99,0.00,21.3,20.7,00.0,30.6,22.8,10.2,0000.0,0001.43,0007.44,0000.67
2021-12-27 10:10:00,,0817.5,5.01,0.00,21.3,20.6,00.0,30.5,22.7,10.2,0000.0,0001.41,0007.99,0000.66
2021-12-27 10:11:00,,0817.5,5.00,0.00,21.2,20.5,00.0,30.5,22.6,10.3,0000.0,0001.40,0006.37,0000.67
2021-12-27 10:12:00,,0817.5,5.01,0.00,21.2,21.0,00.0,30.5,22.8,10.3,0000.0,0001.46,0006.46,0000.69
2021-12-27 10:13:00,,0817.6,4.98,0.00,21.4,21.9,00.0,30.5,23.1,10.2,0000.0,0001.48,0005.08,0000.70
2021-12-27 10:14:00,,0817.5,5.02,0.00,21.6,22.7,00.0,30.6,23.5,10.1,0000.0,0001.45,0005.01,0000.69
2021-12-27 10:15:00,,0817.6,5.00,0.00,21.7,22.9,00.0,30.6,23.7,10.0,0000.0,0001.46,0005.08,0000.69
2021-12-27 10:16:00,,0817.5,5.00,0.00,21.7,22.4,00.0,30.6,23.5,10.0,0000.0,0001.43,0005.20,0000.69
2021-12-27 10:17:00,,0817.5,5.00,0.00,21.7,22.0,00.0,30.6,23.3,10.0,0000.0,0001.46,0005.88,0000.69
2021-12-27 10:18:00,,0817.5,5.00,0.00,21.6,21.7,00.0,30.6,23.2,10.1,0000.0,0001.43,0005.51,0000.69
2021-12-27 10:19:00,,0817.5,5.00,0.00,21.5,21.4,00.0,30.6,23.0,10.1,0000.0,0001.38,0005.43,0000.69
2021-12-27 10:20:00,,0817.5,5.01,0.00,21.4,21.1,00.0,30.6,22.9,10.2,0000.0,0001.40,0005.50,0000.69
2021-12-27 10:21:00,,0817.3,5.01,0.00,21.3,20.9,00.0,30.6,22.8,10.2,0000.0,0001.38,0004.72,0000.69
2021-12-27 10:22:00,,0817.3,4.99,0.00,21.3,20.7,00.0,30.5,22.6,10.3,0000.0,0001.38,0004.09,0000.70
2021-12-27 10:23:00,,0817.3,5.00,0.00,21.2,20.5,00.0,30.5,22.5,10.3,0000.0,0001.38,0004.14,0000.70
2021-12-27 10:24:00,,0817.2,5.00,0.00,21.1,20.4,00.0,30.4,22.5,10.4,0000.0,0001.34,0004.52,0000.70
2021-12-27 10:25:00,,0817.2,4.99,0.00,21.2,21.0,00.0,30.4,22.7,10.4,0000.0,0001.40,0004.68,0000.70
2021-12-27 10:26:00,,0817.1,5.01,0.00,21.3,21.9,00.0,30.5,23.1,10.3,0000.0,0001.42,0004.80,0000.70
2021-12-27 10:27:00,,0817.2,4.99,0.00,21.5,22.7,00.0,30.5,23.5,10.3,0000.0,0001.40,0004.69,0000.71
2021-12-27 10:28:00,,0817.2,5.01,0.00,21.6,22.7,00.0,30.6,23.5,10.2,0000.0,0001.40,0004.00,0000.71
2021-12-27 10:29:00,,0817.2,4.98,0.00,21.6,22.2,00.0,30.6,23.3,10.2,0000.0,0001.43,0003.99,0000.73
2021-12-27 10:30:00,,0817.2,5.01,0.00,21.5,21.8,00.0,30.6,23.1,10.2,0000.0,0001.50,0004.28,0000.74
2021-12-27 10:31:00,,0817.2,4.99,0.00,21.4,21.4,00.0,30.5,22.9,10.3,0000.0,0001.53,0004.66,0000.75
2021-12-27 10:32:00,,0817.2,5.01,0.00,21.3,21.1,00.0,30.5,22.7,10.3,0000.0,0001.55,0004.90,0000.77
2021-12-27 10:33:00,,0817.2,4.99,0.00,21.2,20.8,00.0,30.5,22.6,10.4,0000.0,0001.55,0005.04,0000.77
2021-12-27 10:34:00,,0817.2,5.02,0.00,21.1,20.6,00.0,30.4,22.5,10.4,0000.0,0001.59,0005.04,0000.77
2021-12-27 10:35:00,,0817.2,5.00,0.00,21.0,20.4,00.0,30.4,22.4,10.5,0000.0,0001.63,0004.55,0000.78
2021-12-27 10:36:00,,0817.1,5.00,0.00,21.0,20.4,00.0,30.4,22.3,10.5,0000.0,0001.63,0004.60,0000.78
2021-12-27 10:37:00,,0817.1,5.01,0.00,21.1,21.2,00.0,30.4,22.7,10.4,0000.0,0001.59,0004.65,0000.79
2021-12-27 10:38:00,,0817.1,5.00,0.00,21.3,22.2,00.0,30.4,23.1,10.3,0000.0,0001.62,0004.80,0000.81
2021-12-27 10:39:00,,0817.1,5.00,0.00,21.5,22.9,00.0,30.5,23.4,10.2,0000.0,0001.59,0004.61,0000.81
2021-12-27 10:40:00,,0817.1,5.00,0.00,21.6,22.6,00.0,30.5,23.4,10.2,0000.0,0001.56,0004.84,0000.81
2021-12-27 10:41:00,,0817.1,5.01,0.00,21.5,22.2,00.0,30.5,23.2,10.2,0000.0,0001.55,0005.07,0000.81
2021-12-27 10:42:00,,0817.2,4.99,0.00,21.4,21.7,00.0,30.5,23.0,10.3,0000.0,0001.50,0004.72,0000.81
2021-12-27 10:43:00,,0817.2,5.02,0.00,21.3,21.3,00.0,30.5,22.7,10.3,0000.0,0001.51,0004.61,0000.81
2021-12-27 10:44:00,,0817.2,4.99,0.00,21.2,21.0,00.0,30.4,22.6,10.4,0000.0,0001.56,0004.73,0000.82
2021-12-27 10:45:00,,0817.3,5.01,0.00,21.2,20.7,00.0,30.4,22.5,10.4,0000.0,0001.53,0004.76,0000.82
2021-12-27 10:46:00,,0817.2,4.99,0.00,21.1,20.5,00.0,30.4,22.4,10.5,0000.0,0001.53,0004.76,0000.83
2021-12-27 10:47:00,,0817.3,5.00,0.00,21.0,20.3,00.0,30.3,22.3,10.5,0000.0,0001.49,0005.07,0000.84
2021-12-27 10:48:00,,0817.2,5.02,0.00,20.9,20.2,00.0,30.3,22.2,10.6,0000.0,0001.48,0005.27,0000.84
2021-12-27 10:49:00,,0817.3,4.98,0.00,21.0,20.9,00.0,30.3,22.5,10.6,0000.0,0001.45,0004.99,0000.84
2021-12-27 10:50:00,,0817.3,5.01,0.00,21.2,21.9,00.0,30.3,22.9,10.5,0000.0,0001.53,0006.11,0000.86
2021-12-27 10:51:00,,0817.2,5.00,0.00,21.4,22.7,00.0,30.4,23.3,10.4,0000.0,0001.60,0006.80,0000.87
2021-12-27 10:52:00,,0817.1,5.00,0.00,21.5,22.6,00.0,30.4,23.3,10.3,0000.0,0001.61,0006.68,0000.88
2021-12-27 10:53:00,,0817.1,5.00,0.00,21.4,22.1,00.0,30.4,23.1,10.3,0000.0,0001.64,0006.42,0000.90
2021-12-27 10:54:00,,0817.0,5.00,0.00,21.4,21.6,00.0,30.4,22.9,10.3,0000.0,0001.70,0006.70,0000.90
2021-12-27 10:55:00,,0817.0,5.01,0.00,21.2,21.2,00.0,30.4,22.7,10.3,0000.0,0001.69,0006.50,0000.92
2021-12-27 10:56:00,,0817.0,4.99,0.00,21.1,20.9,00.0,30.4,22.5,10.4,0000.0,0001.76,0006.63,0000.94
2021-12-27 10:57:00,,0817.0,5.01,0.00,21.0,20.6,00.0,30.3,22.4,10.4,0000.0,0001.78,0006.59,0000.98
2021-12-27 10:58:00,,0817.0,4.99,0.00,21.0,20.3,00.0,30.3,22.3,10.5,0000.0,0001.83,0006.37,0001.00
2021-12-27 10:59:00,,0817.0,5.01,0.00,20.9,20.1,00.0,30.2,22.2,10.5,0000.0,0001.86,0005.67,0001.02
